Regional Weather Roundup
Issued by NWS

Home | Current Version | Previous Version | Graphics & Text | Print | Product List | Glossary On
Versions: 1 2 3 4 5 6 7 8 9 10 11 12 13 14 15 16 17 18 19 20 21 22 23 24 25 26 27 28 29 30 31 32 33 34 35 36 37 38 39 40 41 42 43 44 45 46 47 48 49 50
963
ASUS43 KLSX 272207
RWRMO
STLRWRMO ALL

WEATHER SUMMARY FOR MISSOURI
NATIONAL WEATHER SERVICE SPRINGFIELD MO
500 PM CDT THU APR 27 2017

NOTE: "FAIR" INDICATES FEW OR NO CLOUDS BELOW 12,000 FEET WITH NO
       SIGNIFICANT WEATHER AND/OR OBSTRUCTIONS TO VISIBILITY.
       CURRENT SKY AND/OR WEATHER CONDITIONS ARE NOT AVAILABLE FOR
       CHILLICOTHE AND FARMINGTON.

MOZ001>031-035>038-043-044-053-054-272300-
...NORTHERN AND WESTERN MISSOURI...

CITY           SKY/WX    TMP DP  RH WIND       PRES   REMARKS
KANSAS CTY INT CLOUDY    61  39  44 SW6       29.72R
KANSAS C DTWN  PTSUNNY   62  38  40 VRB3      29.72R
LEE`S SUMMIT   PTSUNNY   61  42  49 SW10      29.73R
ST JOSEPH      SUNNY     62  38  40 W6        29.70S
CHILLICOTHE      N/A     63  39  41 MISG      29.71F
KIRKSVILLE     CLOUDY    59  42  53 SW9G20    29.72S

$$
MOZ066>068-077>081-088>096-101>105-272300-
...SOUTHWEST MISSOURI...

CITY           SKY/WX    TMP DP  RH WIND       PRES   REMARKS
SPRINGFIELD    SUNNY     64  39  39 S6        29.71F
JOPLIN         CLOUDY    65  45  48 SE7       29.71S
BRANSON        PTSUNNY   66  43  42 SE10      29.73F

$$
MOZ032>034-039>042-045>050-055>058-069>072-272300-
...CENTRAL MISSOURI...

CITY           SKY/WX    TMP DP  RH WIND       PRES   REMARKS
COLUMBIA       SUNNY     59  43  55 CALM      29.72F
JEFFERSON CITY SUNNY     63  42  46 E5        29.72F
ROLLA          SUNNY     60  43  53 SW7       29.73F
SEDALIA        MOSUNNY   62  47  57 S9        29.75R
WHITEMAN AFB   PTSUNNY   61  45  56 SW12      29.72R
OSAGE BEACH    CLOUDY    63  43  48 VRB6      29.74S

$$
MOZ051-052-059>065-272300-
...EAST CENTRAL MISSOURI...

CITY           SKY/WX    TMP DP  RH WIND       PRES   REMARKS
ST LOUIS INTL  MOSUNNY   61  42  49 S10       29.76F
SPIRIT OF STL  MOSUNNY   61  44  53 W9        29.74F
ST CHARLES     SUNNY     59  42  53 W6        29.75F

$$
MOZ072>076-082>087-097>100-106>115-272300-
...SOUTH CENTRAL AND SOUTHEAST MISSOURI...

CITY           SKY/WX    TMP DP  RH WIND       PRES   REMARKS
CAPE GIRARDEAU MOSUNNY   60  47  61 S7        29.79F
FARMINGTON     SUNNY     64  45  49 S7        29.76F
POPLAR BLUFF   SUNNY     62  51  67 S8        29.78F
WEST PLAINS    SUNNY     64  41  42 S7        29.76F

$$




USA.gov is the U.S. government's official web portal to all federal, state and local government web resources and services.